Location: Kelshall
(52.0000°N, 0.0500°W)
Time: 22:06:41
(UTC+00:00)

ATLAS 2AS CENTAUR R/B - Pass Details

Date: 24 January 2021
Orbit: 947 x 1265 km, 63.7° (Epoch: 13 February)

Event Time Altitude Azimuth Distance (km) Brightness Sun altitude
Rises 22:37:39 0° 313° (NW) 4,159 6.4 -52.1°
Reaches altitude 10° 22:40:30 10° 315° (NW) 3,157 5.6 -52.4°
Enters shadow 22:41:47 16° 315° (NW) 2,718 5.2 -52.5°
